Home   Weather   Bourges   Past weeks

Flag for France Past Weather in Bourges, Centre-Val de Loire, France — Yesterday and Last 2 Weeks

Now
42 °F

Quite cool.


Feels Like: 37 °F
Forecast: 31 / 41 °F
Wind: 7 mph from Northeast

Location: Bourges

Current Time: Feb 20, 2018 at 12:37:24 pm

Latest Report: Feb 20, 2018 at 12:00 pm


Visibility: 12 mi

Pressure: 30.03 "Hg

Humidity: 91%

Dew Point: 39 °F

Location of BourgesLocation

Past Weather in Bourges — Graph

°F

Bourges Temperature Yesterday

Maximum temperature yesterday: 46 °F (at 3:00 pm)
Minimum temperature yesterday: 30 °F (at 7:00 am)
Average temperature yesterday: 38 °F

High & Low Weather Summary for the Past Weeks

 TemperatureHumidityPressure
High58 °F (Feb 15, 4:00 pm)97% (Feb 6, 2:00 am)30.33 "Hg (Feb 6, 2:00 am)
Low25 °F (Feb 8, 8:00 am)45% (Feb 12, 4:00 pm)29.74 "Hg (Feb 13, 5:00 pm)
Average37 °F88%30.06 "Hg
* Reported Feb 5 11:00 am — Feb 20 11:00 am, Bourges. Weather by CustomWeather, © 2018

Note: Actual official high and low records may vary slightly from our data, if they occured in-between our weather recording intervals... More about our weather records

Advertising

Bourges Weather History for the Previous 24 Hours

Scroll right to see more
 ConditionsComfort  
Time TempWeatherWind HumidityBarometerVisibility
11:00 am
Tue, Feb 20
40 °FQuite cool.7 mph95%30.02 "Hg6 mi
10:00 am40 °FChilly.7 mph96%30.01 "Hg3 mi
9:00 am40 °FQuite cool.2 mph96%29.99 "Hg4 mi
8:00 am40 °FDrizzle. Cloudy.3 mph96%29.97 "Hg2 mi
7:00 am40 °FDrizzle. Overcast.3 mph96%29.96 "Hg2 mi
6:00 am40 °FQuite cool.3 mph96%29.95 "Hg3 mi
5:00 am41 °FDrizzle. Overcast.3 mph96%29.96 "Hg1 mi
4:00 am41 °FDrizzle. Overcast.2 mph96%29.96 "Hg1 mi
3:00 am41 °FLight rain. Overcast.5 mph96%29.97 "Hg1 mi
2:00 am41 °FDrizzle. Overcast.3 mph96%29.97 "Hg1 mi
1:00 am41 °FDrizzle. Overcast.3 mph96%30.00 "Hg1 mi
12:00 am40 °FDrizzle. Overcast.5 mph95%30.01 "Hg1 mi
11:00 pm
Mon, Feb 19
41 °FLight rain. Overcast.3 mph93%30.03 "Hg1 mi
10:00 pm41 °FLight rain. Overcast.3 mph92%30.04 "Hg4 mi
9:00 pm42 °FLight rain. Overcast.3 mph89%30.05 "Hg11 mi
8:00 pm42 °FQuite cool.1 mph87%30.06 "Hg9 mi
7:00 pm42 °FQuite cool.No wind83%30.06 "Hg12 mi
6:00 pm43 °FLight rain. Cloudy.1 mph79%30.07 "Hg8 mi
5:00 pm45 °FLight rain. Cloudy.1 mph62%30.06 "Hg12 mi
4:00 pm46 °FCool.2 mph60%30.07 "Hg12 mi
3:00 pm46 °FCool.2 mph63%30.08 "Hg12 mi
2:00 pm45 °FCool.2 mph65%30.09 "Hg12 mi
1:00 pm46 °FCool.3 mph70%30.11 "Hg12 mi
12:00 pm42 °FQuite cool.5 mph77%30.12 "Hg11 mi
Weather by CustomWeather, © 2018

See weather overview